FW4608 Weather Reports


time (UTC)temp
F
wind
direction
speed
knots
gust
knots
rain 1hr
in
rain 24hr
in
rain mn
in
humidity
%
barometer
mb
20230208163019 76 95 0.0 1.7 0.00 0.00 0.00 60 1027.8
20230208162519 76 182 0.0 3.5 0.00 0.00 0.00 61 1027.8
20230208162018 76 252 1.7 3.5 0.00 0.00 0.00 61 1028.0
20230208161519 76 311 0.9 4.3 0.00 0.00 0.00 63 1028.0
20230208161019 76 287 0.9 3.5 0.00 0.00 0.00 63 1028.0
20230208160516 76 101 0.0 4.3 0.00 0.00 0.00 65 1028.2
20230208160015 75 181 0.0 4.3 0.00 0.00 0.00 67 1028.1
20230208155513 75 231 0.0 4.3 0.00 0.00 0.00 64 1028.1
20230208155012 74 214 0.9 4.3 0.00 0.00 0.00 65 1028.1
20230208154517 74 209 0.9 3.5 0.00 0.00 0.00 68 1028.2
20230208154011 74 140 0.9 0.0 0.00 0.00 0.00 68 1028.1
20230208153510 74 192 0.9 4.3 0.00 0.00 0.00 67 1028.0
20230208153010 74 226 0.9 3.5 0.00 0.00 0.00 69 1028.1
20230208152509 73 134 0.9 3.5 0.00 0.00 0.00 70 1028.0
20230208152006 72 218 0.9 2.6 0.00 0.00 0.00 70 1028.0
20230208151505 72 149 0.0 1.7 0.00 0.00 0.00 73 1028.0
20230208151004 71 219 0.0 1.7 0.00 0.00 0.00 74 1028.0
20230208150503 71 156 0.0 1.7 0.00 0.00 0.00 75 1028.0
20230208150003 70 255 0.0 1.7 0.00 0.00 0.00 79 1028.1
20230208145600 69 108 0.0 0.9 0.00 0.00 0.00 80 1028.0
20230208145058 68 181 0.0 1.7 0.00 0.00 0.00 82 1028.1
20230208144600 67 135 0.0 1.7 0.00 0.00 0.00 85 1028.0
20230208144056 65 132 0.0 1.7 0.00 0.00 0.00 88 1028.0
20230208143555 64 172 0.0 1.7 0.00 0.00 0.00 95 1027.9
20230208143103 64 114 0.0 0.9 0.00 0.00 0.00 96 1027.8
20230208142552 63 114 0.0 0.0 0.00 0.00 0.00 96 1027.8
20230208142051 62 115 0.0 0.9 0.00 0.00 0.00 96 1027.8
20230208141550 62 60 0.0 0.9 0.00 0.00 0.00 96 1027.8
20230208141051 61 60 0.0 0.9 0.00 0.00 0.00 96 1027.9
20230208140547 60 60 0.0 0.0 0.00 0.00 0.00 96 1027.9
20230208140101 59 60 0.0 0.0 0.00 0.00 0.00 96 1027.9
20230208135545 59 60 0.0 0.0 0.00 0.00 0.00 96 1027.8
20230208135046 57 60 0.0 0.0 0.00 0.00 0.00 96 1027.8
20230208134546 56 60 0.0 0.0 0.00 0.00 0.00 96 1027.8
20230208134041 55 60 0.0 0.0 0.00 0.00 0.00 96 1027.9
20230208133540 54 60 0.0 0.0 0.00 0.00 0.00 96 1027.9
20230208133101 53 60 0.0 0.0 0.00 0.00 0.00 95 1027.8
20230208132539 53 60 0.0 0.0 0.00 0.00 0.00 95 1027.8
20230208132038 52 60 0.0 0.0 0.00 0.00 0.00 95 1027.7
20230208131538 52 60 0.0 0.0 0.00 0.00 0.00 95 1027.6
20230208131039 52 60 0.0 0.0 0.00 0.00 0.00 95 1027.6
20230208130538 52 60 0.0 0.0 0.00 0.00 0.00 95 1027.5
20230208130038 51 60 0.0 0.0 0.00 0.00 0.00 95 1027.4
20230208125540 51 60 0.0 0.0 0.00 0.00 0.00 95 1027.3
20230208125037 51 60 0.0 0.0 0.00 0.00 0.00 95 1027.3
20230208124539 51 60 0.0 0.0 0.00 0.00 0.00 95 1027.3
20230208124036 51 60 0.0 0.0 0.00 0.00 0.00 95 1027.3
20230208123536 51 60 0.0 0.0 0.00 0.00 0.00 95 1027.2
20230208123038 51 60 0.0 0.0 0.00 0.00 0.00 95 1027.2
20230208122536 51 60 0.0 0.0 0.00 0.00 0.00 94 1027.1
20230208122037 50 60 0.0 0.0 0.00 0.00 0.00 94 1027.1
20230208121536 50 60 0.0 0.0 0.00 0.00 0.00 94 1027.1
20230208121037 50 60 0.0 0.0 0.00 0.00 0.00 94 1027.0
20230208120535 51 60 0.0 0.0 0.00 0.00 0.00 94 1027.0
20230208120040 51 60 0.0 0.0 0.00 0.00 0.00 94 1027.0
20230208115535 51 60 0.0 0.0 0.00 0.00 0.00 94 1027.0
20230208115032 51 60 0.0 0.0 0.00 0.00 0.00 95 1026.9
20230208114532 51 60 0.0 0.0 0.00 0.00 0.00 95 1026.9
20230208114032 51 60 0.0 0.0 0.00 0.00 0.00 94 1026.9
20230208113531 51 60 0.0 0.0 0.00 0.00 0.00 94 1026.9
20230208113031 51 60 0.0 0.0 0.00 0.00 0.00 94 1026.7
20230208112531 51 60 0.0 0.0 0.00 0.00 0.00 94 1026.7
20230208112031 51 60 0.0 0.0 0.00 0.00 0.00 94 1026.8
20230208111530 51 60 0.0 0.0 0.00 0.00 0.00 94 1026.9
20230208111031 51 60 0.0 0.0 0.00 0.00 0.00 94 1026.8
20230208110530 51 60 0.0 0.0 0.00 0.00 0.00 94 1026.7
20230208110030 51 60 0.0 0.0 0.00 0.00 0.00 94 1026.7
20230208105533 51 60 0.0 0.0 0.00 0.00 0.00 94 1026.6
20230208105028 51 60 0.0 0.0 0.00 0.00 0.00 94 1026.5
20230208104533 51 60 0.0 0.0 0.00 0.00 0.00 94 1026.4
20230208104030 51 60 0.0 0.0 0.00 0.00 0.00 94 1026.4
20230208103528 51 60 0.0 0.0 0.00 0.00 0.00 94 1026.4
20230208103031 51 60 0.0 0.0 0.00 0.00 0.00 94 1026.4
20230208102528 51 60 0.0 0.0 0.00 0.00 0.00 94 1026.3
20230208102027 51 60 0.0 0.0 0.00 0.00 0.00 94 1026.3
20230208101530 51 60 0.0 0.0 0.00 0.00 0.00 94 1026.3
20230208101027 51 60 0.0 0.0 0.00 0.00 0.00 94 1026.4
20230208100526 51 60 0.0 0.0 0.00 0.00 0.00 94 1026.2
20230208100026 51 60 0.0 0.0 0.00 0.00 0.00 94 1026.2
20230208095526 51 60 0.0 0.0 0.00 0.00 0.00 94 1026.2
20230208095025 51 60 0.0 0.0 0.00 0.00 0.00 94 1026.1
20230208094526 51 60 0.0 0.0 0.00 0.00 0.00 94 1026.1
20230208094024 51 60 0.0 0.0 0.00 0.00 0.00 94 1026.2
20230208093523 52 60 0.0 0.0 0.00 0.00 0.00 94 1026.2
20230208093023 52 60 0.0 0.0 0.00 0.00 0.00 94 1026.1
20230208092523 52 60 0.0 0.0 0.00 0.00 0.00 94 1026.1
20230208092022 52 60 0.0 0.0 0.00 0.00 0.00 94 1026.1
20230208091521 52 60 0.0 0.0 0.00 0.00 0.00 94 1026.1
20230208091021 52 60 0.0 0.0 0.00 0.00 0.00 94 1026.1
20230208090521 52 60 0.0 0.0 0.00 0.00 0.00 94 1026.2
20230208090021 52 60 0.0 0.0 0.00 0.00 0.00 94 1026.1
20230208085521 52 60 0.0 0.0 0.00 0.00 0.00 94 1026.1
20230208085019 52 60 0.0 0.0 0.00 0.00 0.00 94 1026.1
20230208084521 52 60 0.0 0.0 0.00 0.00 0.00 94 1026.1
20230208084019 52 60 0.0 0.0 0.00 0.00 0.00 94 1026.3
20230208083520 52 60 0.0 0.0 0.00 0.00 0.00 94 1026.2
20230208083019 52 60 0.0 0.0 0.00 0.00 0.00 94 1026.3
20230208082520 53 60 0.0 0.0 0.00 0.00 0.00 94 1026.2
20230208082017 53 60 0.0 0.0 0.00 0.00 0.00 94 1026.2
20230208081523 53 60 0.0 0.0 0.00 0.00 0.00 94 1026.3
20230208081015 53 60 0.0 0.0 0.00 0.00 0.00 94 1026.4
20230208080517 53 60 0.0 0.0 0.00 0.00 0.00 94 1026.2
20230208080017 53 60 0.0 0.0 0.00 0.00 0.00 94 1026.3
20230208075514 53 60 0.0 0.0 0.00 0.00 0.00 94 1026.3
20230208075013 53 60 0.0 0.0 0.00 0.00 0.00 94 1026.4
20230208074525 53 60 0.0 0.0 0.00 0.00 0.00 94 1026.5
20230208074019 53 60 0.0 0.0 0.00 0.00 0.00 94 1026.6
20230208073512 53 60 0.0 0.0 0.00 0.00 0.00 93 1026.6
20230208073012 53 60 0.0 0.0 0.00 0.00 0.00 93 1026.6
20230208072513 53 60 0.0 0.0 0.00 0.00 0.00 93 1026.7
20230208072010 53 60 0.0 0.0 0.00 0.00 0.00 93 1026.6
20230208071510 53 60 0.0 0.0 0.00 0.00 0.00 93 1026.8
20230208071008 53 60 0.0 0.0 0.00 0.00 0.00 93 1026.7
20230208070507 53 60 0.0 0.0 0.00 0.00 0.00 93 1026.9
20230208070008 54 60 0.0 0.0 0.00 0.00 0.00 93 1026.9
20230208065506 54 60 0.0 0.0 0.00 0.00 0.00 93 1027.0
20230208065008 54 60 0.0 0.0 0.00 0.00 0.00 93 1027.0
20230208064508 54 60 0.0 0.0 0.00 0.00 0.00 93 1027.1
20230208064004 54 60 0.0 0.0 0.00 0.00 0.00 93 1027.0
20230208063504 54 60 0.0 0.0 0.00 0.00 0.00 93 1027.0
20230208063004 54 60 0.0 0.0 0.00 0.00 0.00 93 1027.0
20230208062505 54 60 0.0 0.0 0.00 0.00 0.00 93 1027.1
20230208062104 54 60 0.0 0.0 0.00 0.00 0.00 93 1027.0
20230208061510 54 60 0.0 0.0 0.00 0.00 0.00 93 1027.0
20230208061004 54 60 0.0 0.0 0.00 0.00 0.00 93 1027.0
20230208060502 55 60 0.0 0.0 0.00 0.00 0.00 93 1027.0
20230208060000 55 60 0.0 0.0 0.00 0.00 0.00 93 1027.1
20230208055603 55 60 0.0 0.0 0.00 0.00 0.00 93 1027.2
20230208055059 55 60 0.0 0.0 0.00 0.00 0.00 93 1027.2
20230208054616 55 60 0.0 0.0 0.00 0.00 0.00 93 1027.3
20230208054057 55 60 0.0 0.0 0.00 0.00 0.00 93 1027.3
20230208053557 56 60 0.0 0.0 0.00 0.00 0.00 93 1027.4
20230208053106 56 60 0.0 0.0 0.00 0.00 0.00 93 1027.5
20230208052557 56 60 0.0 0.0 0.00 0.00 0.00 93 1027.5
20230208052100 55 60 0.0 0.0 0.00 0.00 0.00 93 1027.4
20230208051604 56 60 0.0 0.0 0.00 0.00 0.00 93 1027.6
20230208051055 56 60 0.0 0.0 0.00 0.00 0.00 93 1027.5
20230208050554 56 60 0.0 0.0 0.00 0.00 0.00 93 1027.4
20230208050053 56 60 0.0 0.0 0.00 0.00 0.00 93 1027.5
20230208045554 56 60 0.0 0.0 0.00 0.00 0.00 92 1027.6
20230208045056 55 60 0.0 0.0 0.00 0.00 0.00 92 1027.7
20230208044601 56 60 0.0 0.9 0.00 0.00 0.00 92 1027.6
20230208044052 56 60 0.0 0.9 0.00 0.00 0.00 92 1027.5
20230208043553 56 60 0.0 0.0 0.00 0.00 0.00 92 1027.7
20230208043054 56 60 0.0 0.0 0.00 0.00 0.00 92 1027.8
20230208042555 56 60 0.0 0.0 0.00 0.00 0.00 92 1027.8
20230208042121 56 60 0.0 0.0 0.00 0.00 0.00 92 1027.9
20230208041551 57 60 0.0 0.0 0.00 0.00 0.00 92 1027.8
20230208041051 57 60 0.0 0.0 0.00 0.00 0.00 92 1028.0
20230208040551 57 60 0.0 0.0 0.00 0.00 0.00 92 1028.0
20230208040050 57 60 0.0 0.0 0.00 0.00 0.00 92 1027.9
20230208035551 57 60 0.0 0.0 0.00 0.00 0.00 91 1027.9
20230208035051 57 60 0.0 0.0 0.00 0.00 0.00 91 1028.1
20230208034550 57 60 0.0 0.0 0.00 0.00 0.00 91 1027.9
20230208034050 58 60 0.0 0.0 0.00 0.00 0.00 91 1028.0
20230208033549 58 60 0.0 0.0 0.00 0.00 0.00 91 1028.0
20230208033106 58 60 0.0 0.0 0.00 0.00 0.00 91 1028.0
20230208032554 58 60 0.0 0.0 0.00 0.00 0.00 91 1027.9
20230208032049 58 60 0.0 0.0 0.00 0.00 0.00 91 1027.9
20230208031553 58 60 0.0 0.0 0.00 0.00 0.00 90 1027.8
20230208031051 58 60 0.0 0.0 0.00 0.00 0.00 91 1027.9
20230208030552 58 60 0.0 0.0 0.00 0.00 0.00 91 1027.7
20230208030051 58 60 0.0 0.0 0.00 0.00 0.00 90 1027.8
20230208025548 58 60 0.0 0.0 0.00 0.00 0.00 90 1027.7
20230208025047 58 60 0.0 0.0 0.00 0.00 0.00 90 1027.7
20230208024553 58 60 0.0 0.0 0.00 0.00 0.00 90 1027.8
20230208024050 58 60 0.0 0.0 0.00 0.00 0.00 90 1027.7
20230208023548 58 60 0.0 0.0 0.00 0.00 0.00 89 1027.7
20230208023047 59 60 0.0 0.0 0.00 0.00 0.00 89 1027.7
20230208022547 59 60 0.0 0.0 0.00 0.00 0.00 89 1027.8
20230208022049 59 60 0.0 0.0 0.00 0.00 0.00 89 1027.8
20230208021547 59 60 0.0 0.0 0.00 0.00 0.00 89 1027.8
20230208021047 59 60 0.0 0.0 0.00 0.00 0.00 89 1027.8
20230208020545 59 60 0.0 0.0 0.00 0.00 0.00 88 1027.8
20230208020051 59 60 0.0 0.0 0.00 0.00 0.00 88 1027.8
20230208015546 60 60 0.0 0.0 0.00 0.00 0.00 88 1027.8
20230208015044 60 60 0.0 0.0 0.00 0.00 0.00 87 1027.8
20230208014548 60 60 0.0 0.0 0.00 0.00 0.00 87 1027.8
20230208014044 60 60 0.0 0.0 0.00 0.00 0.00 88 1027.8
20230208013545 60 60 0.0 0.0 0.00 0.00 0.00 87 1027.7
20230208013047 60 60 0.0 0.0 0.00 0.00 0.00 87 1027.6
20230208012546 60 60 0.0 0.0 0.00 0.00 0.00 87 1027.6
20230208012044 60 60 0.0 0.0 0.00 0.00 0.00 86 1027.6
20230208011544 61 60 0.0 0.0 0.00 0.00 0.00 86 1027.4
20230208011044 61 60 0.0 0.0 0.00 0.00 0.00 86 1027.5
20230208010544 61 60 0.0 0.0 0.00 0.00 0.00 85 1027.4
20230208010056 61 60 0.0 0.0 0.00 0.00 0.00 85 1027.3
20230208005542 61 60 0.0 0.9 0.00 0.00 0.00 84 1027.4
20230208005044 62 60 0.0 0.9 0.00 0.00 0.00 84 1027.3
20230208004542 62 60 0.0 0.0 0.00 0.00 0.00 84 1027.4
20230208004045 62 60 0.0 0.0 0.00 0.00 0.00 83 1027.4
20230208003543 62 60 0.0 0.0 0.00 0.00 0.00 82 1027.4
20230208003042 62 60 0.0 0.0 0.00 0.00 0.00 82 1027.4
20230208002542 63 72 0.0 0.9 0.00 0.00 0.00 82 1027.3
20230208002041 63 73 0.0 0.9 0.00 0.00 0.00 81 1027.3
20230208001542 63 74 0.0 0.9 0.00 0.00 0.00 81 1027.3
20230208001041 63 73 0.0 0.9 0.00 0.00 0.00 80 1027.3
20230208000541 64 66 0.0 0.9 0.00 0.00 0.00 80 1027.1
20230208000055 64 65 0.0 0.9 0.00 0.00 0.00 79 1027.1
20230207235541 64 65 0.0 0.9 0.00 0.00 0.00 78 1027.0
20230207235040 65 65 0.0 0.9 0.00 0.00 0.00 78 1027.0
20230207234547 65 356 0.0 0.9 0.00 0.00 0.00 77 1027.0
20230207234040 65 356 0.0 0.9 0.00 0.00 0.00 76 1026.9
20230207233544 66 355 0.0 0.9 0.00 0.00 0.00 75 1026.8
20230207233041 66 356 0.0 0.9 0.00 0.00 0.00 75 1026.8
20230207232640 66 58 0.0 0.9 0.00 0.00 0.00 74 1026.8
20230207232039 67 113 0.0 1.7 0.00 0.00 0.00 73 1026.8
20230207231541 67 130 0.0 2.6 0.00 0.00 0.00 72 1026.7
20230207231041 68 121 0.9 1.7 0.00 0.00 0.00 72 1026.7
20230207230540 68 137 0.0 2.6 0.00 0.00 0.00 71 1026.7
20230207230039 69 219 0.0 2.6 0.00 0.00 0.00 70 1026.6
20230207225539 69 87 0.0 2.6 0.00 0.00 0.00 69 1026.7
20230207225038 70 145 0.0 4.3 0.00 0.00 0.00 68 1026.7
20230207224539 70 144 0.0 4.3 0.00 0.00 0.00 67 1026.8
20230207224038 71 129 0.0 3.5 0.00 0.00 0.00 67 1026.7
20230207223538 71 92 0.0 3.5 0.00 0.00 0.00 66 1026.8
20230207223040 71 128 0.0 1.7 0.00 0.00 0.00 66 1026.8
20230207222538 72 109 0.0 2.6 0.00 0.00 0.00 65 1026.9
20230207222042 72 124 0.0 2.6 0.00 0.00 0.00 64 1026.8
20230207221540 73 289 0.0 1.7 0.00 0.00 0.00 63 1026.9
20230207221037 73 125 0.0 4.3 0.00 0.00 0.00 62 1026.9
20230207220537 73 201 0.9 4.3 0.00 0.00 0.00 60 1026.9
20230207220040 74 148 0.9 3.5 0.00 0.00 0.00 60 1026.9
20230207215538 74 121 0.0 3.5 0.00 0.00 0.00 59 1026.8
20230207215037 74 106 0.0 3.5 0.00 0.00 0.00 60 1026.8
20230207214539 74 94 0.0 3.5 0.00 0.00 0.00 59 1026.9
20230207214037 75 49 0.0 3.5 0.00 0.00 0.00 59 1026.8
20230207213536 75 105 0.9 4.3 0.00 0.00 0.00 58 1026.8
20230207213054 75 137 0.9 4.3 0.00 0.00 0.00 57 1026.8
20230207212536 75 111 0.0 4.3 0.00 0.00 0.00 59 1026.7
20230207212035 75 292 0.9 6.1 0.00 0.00 0.00 58 1026.8
20230207211546 76 289 0.9 6.1 0.00 0.00 0.00 57 1026.7
20230207211035 76 197 0.0 2.6 0.00 0.00 0.00 57 1026.8
20230207210535 76 145 0.9 2.6 0.00 0.00 0.00 55 1026.8
20230207210051 77 74 0.0 2.6 0.00 0.00 0.00 55 1026.7
20230207205535 77 202 0.0 2.6 0.00 0.00 0.00 53 1026.7
20230207205034 76 238 0.9 4.3 0.00 0.00 0.00 56 1026.8
20230207204536 76 153 0.9 4.3 0.00 0.00 0.00 55 1026.8
20230207204034 76 165 0.9 3.5 0.00 0.00 0.00 54 1026.8
20230207203534 77 154 0.9 3.5 0.00 0.00 0.00 54 1026.9
20230207203035 77 143 0.9 4.3 0.00 0.00 0.00 55 1026.8
20230207202537 76 146 1.7 5.2 0.00 0.00 0.00 55 1026.9
20230207202033 77 137 1.7 5.2 0.00 0.00 0.00 54 1026.9
20230207201534 77 290 0.9 3.5 0.00 0.00 0.00 54 1026.7
20230207201034 77 241 0.9 3.5 0.00 0.00 0.00 54 1026.7
20230207200532 77 163 0.9 6.1 0.00 0.00 0.00 54 1026.8
20230207200033 77 204 0.9 6.1 0.00 0.00 0.00 53 1026.8
20230207195534 77 198 1.7 4.3 0.00 0.00 0.00 54 1026.7
20230207195028 77 245 0.9 4.3 0.00 0.00 0.00 53 1026.7
20230207194527 77 212 1.7 4.3 0.00 0.00 0.00 53 1026.6
20230207194029 77 118 0.9 4.3 0.00 0.00 0.00 54 1026.5
20230207193524 78 148 1.7 4.3 0.00 0.00 0.00 52 1026.6
20230207193022 78 71 0.9 3.5 0.00 0.00 0.00 55 1026.6
20230207192522 77 333 0.0 7.8 0.00 0.00 0.00 53 1026.5
20230207192021 77 69 2.6 7.8 0.00 0.00 0.00 52 1026.7
20230207191520 78 94 0.9 4.3 0.00 0.00 0.00 54 1026.8
20230207191018 78 124 0.9 4.3 0.00 0.00 0.00 52 1026.6
20230207190517 77 92 0.9 4.3 0.00 0.00 0.00 53 1026.6
20230207190021 77 105 0.9 4.3 0.00 0.00 0.00 51 1026.6
20230207185516 78 23 1.7 4.3 0.00 0.00 0.00 50 1026.8
20230207185115 77 1 0.9 4.3 0.00 0.00 0.00 53 1026.9
20230207184516 78 153 0.9 4.3 0.00 0.00 0.00 49 1027.0
20230207184013 77 102 0.0 7.0 0.00 0.00 0.00 52 1027.1
20230207183513 77 110 0.9 7.0 0.00 0.00 0.00 50 1027.0
20230207183012 78 235 0.9 3.5 0.00 0.00 0.00 52 1027.0
20230207182512 78 137 0.9 3.5 0.00 0.00 0.00 51 1027.3
20230207182010 77 121 0.9 3.5 0.00 0.00 0.00 56 1027.2
20230207181509 77 276 0.9 7.0 0.00 0.00 0.00 54 1027.3
20230207181010 77 140 2.6 7.0 0.00 0.00 0.00 53 1027.4
20230207180510 77 306 0.0 3.5 0.00 0.00 0.00 54 1027.4
20230207180016 76 228 0.0 6.1 0.00 0.00 0.00 54 1027.6
20230207175508 76 92 1.7 6.1 0.00 0.00 0.00 54 1027.6
20230207175007 75 236 0.9 7.8 0.00 0.00 0.00 53 1027.5
20230207174607 75 94 1.7 7.8 0.00 0.00 0.00 54 1027.6
20230207174006 75 314 0.9 7.0 0.00 0.00 0.00 53 1027.9
20230207173506 76 259 0.9 4.3 0.00 0.00 0.00 54 1027.9
20230207173006 76 159 1.7 4.3 0.00 0.00 0.00 53 1027.9
20230207172505 77 165 0.9 4.3 0.00 0.00 0.00 53 1028.0
20230207172004 76 205 0.0 4.3 0.00 0.00 0.00 54 1028.0
20230207171504 76 337 0.0 4.3 0.00 0.00 0.00 56 1028.2
20230207171003 75 91 0.9 4.3 0.00 0.00 0.00 55 1028.1
20230207170502 75 129 0.0 3.5 0.00 0.00 0.00 55 1028.2
20230207170002 75 138 0.9 3.5 0.00 0.00 0.00 59 1028.2
20230207165600 75 178 0.9 3.5 0.00 0.00 0.00 55 1028.3
20230207165059 74 64 0.9 3.5 0.00 0.00 0.00 59 1028.4
20230207164558 73 172 0.0 4.3 0.00 0.00 0.00 60 1028.5
20230207164100 74 161 0.9 4.3 0.00 0.00 0.00 59 1028.6
20230207163555 74 79 0.9 6.1 0.00 0.00 0.00 58 1028.6